STARLINK-5688, 55479

Orbit data source: Space-Track

STARLINK-5688, 55479 is a payload satellite owned by SpaceX/Seattle (US) in LEO that was launched on Thu, 02 Feb 2023 UTC via an FALCON 9 launch vehicle from the Air Force Eastern Test Range (AFETR). Payload-class satellites include a variety of spacecraft equipped with specific instruments for various scientific and technological missions. These include communications satellites like Starlink; space stations such as the ISS; scientific satellites like the Hubble; Earth observation satellites from companies like Planet Labs, Umbra, and HawkEye 360; GPS; miniature CubeSats for education and research; and military/defense satellites.

Loading next visibility...
Identifier
55479, 2023-015AG
Orbit
LEO
Country
Flag of USUS
Related business
Manufacturer
SpaceX/Seattle
Mission
Operational Commercial Communications
Bus & Motor
STARLINK, Unknown motor
Mass
305 kg wet, ~290 kg dry
Launch date (UTC)
2023-02-02 (3 years ago)
Launch vehicle
FALCON 9
Launch site
Air Force Eastern Test Range (AFETR)
Object type
Payload
Rocket body
Debris
Shape & HBR
Box + 1 Pan, 10.1 m
Radar Cross Section
13.562 m², Large (>1 m²)

Expand to show TLE details & history
Last TLE update: 1 day ago

TLE from 1 day ago
0 STARLINK-5688
1 55479U 23015AG  25340.60128082 -.00000741  00000-0 -39744-4 0  9997
2 55479  43.0038  99.4344 0001700 272.0625  88.0022 15.02534200156896
Epoch: 2025-12-06T14:25Z
TLE epoch observation values (Epoch: 2025-12-06T14:25:50.662Z)
Latitude
-0.00008°
Longitude
167.34655°
Altitude
558.822 km
Speed
7.584 km/s
True Right ascension
06h 37m 44s
True Declination
0° 00' 00"
Sunlit
Object was in full shadow at epoch
Visualization orbit readout
Latitude
Unknown
Longitude
Unknown
Altitude
Unknown
Speed
Unknown
Apparent Right ascension
Unknown
Apparent Declination
Unknown
Sunlit
N/A
Visualization observer readout
Local Sidereal Time
19:10:41
Azimuth
Unknown
Elevation
Unknown
Doppler factor
Unknown
Orbital elements
Apogee altitude
562.188 km
Perigee altitude
559.829 km
Semi-major axis
6,939.145 km
Eccentricity
0.00017
Inclination
43.0038°
RAAN
99.4344°
Arg. of periapsis
272.0625°
True anomaly
88.02167°
Mean anomaly
88.0022°
Eccentric anomaly
88.01193°
Mean motion
3.75478 °/min
Orbital period
95.88 mins
BSTAR
-0.000039744
Loading maneuver chart data...
Computing Atmospheric mass density...
Loading historical data...
Loading historical data...
Loading historical data...
Loading historical data...
Loading historical data...
Loading historical data...
Loading historical data...

Documentation

Showing up to 5 results
|